Weather History for Mackinac Island, MI

Change the Weather History Date:

Sunday, February 24, 2013

  Actual Average Record
Temperature  
Mean Temperature 23 °F -  
Max Temperature 33 °F 26 °F 41 °F (1976)
Min Temperature 13 °F 15 °F -2 °F (1993)
Degree Days  
Heating Degree Days 42    
Moisture  
Dew Point 21 °F    
Average Humidity 87    
Maximum Humidity 96    
Minimum Humidity 71    
Precipitation  
Precipitation 0.00 in - - ()
Sea Level Pressure  
Sea Level Pressure 29.96 in    
Wind  
Wind Speed 4 mph (WNW)    
Max Wind Speed 10 mph    
Max Gust Speed -    
Visibility 9 miles    
Events Fog    
Averages and records for this station are not official NWS values.
T = Trace of Precipitation, MM = Missing Value Source: NWS Daily Summary

Daily Weather History Graph

Daily Weather History Graph

Search for Another Location

Airport:

Trip Planner

Search our weather history database for the weather conditions in past years. The results will help you decide how hot, cold, wet, or windy it might be!

Date:

Astronomy

Feb. 24, 2013 Rise Set
Actual Time 7:25 AM EST 6:18 PM EST
Civil Twilight 6:55 AM EST 6:48 PM EST
Nautical Twilight 6:20 AM EST 7:23 PM EST
Astronomical Twilight 5:46 AM EST 7:57 PM EST
Moon 5:28 PM EST (2/24) 6:23 AM EST (2/24)
Length of Visible Light 11h 53m
Length of Day
10h 52m
Waxing Gibbous, 99% of the Moon is Illuminated
Feb 24
Waxing Gibbous
Feb 25
Full
Mar 4
Last Quarter
Mar 11
New
Mar 19
First Quarter

Hourly Weather History & Observations

Time (EST) Temp. Windchill Dew Point Humidity Pressure Visibility Wind Dir Wind Speed Gust Speed Precip Events Conditions
12:13 AM 22.6 °F 18.0 °F 21.0 °F 93% 29.80 in 10.0 mi SSW 3.5 mph - N/A   Overcast
12:33 AM 23.0 °F - 21.2 °F 93% 29.80 in 10.0 mi Calm Calm - N/A   Overcast
12:54 AM 23.2 °F 18.7 °F 21.9 °F 95% 29.80 in 10.0 mi SW 3.5 mph - N/A   Overcast
1:54 AM 21.4 °F - 19.8 °F 93% 29.81 in 10.0 mi Calm Calm - N/A   Clear
2:13 AM 20.5 °F - 18.7 °F 93% 29.81 in 10.0 mi Calm Calm - N/A   Scattered Clouds
2:34 AM 20.3 °F - 18.7 °F 93% 29.82 in 0.8 mi Calm Calm - N/A   Overcast
2:54 AM 19.4 °F - 17.8 °F 93% 29.81 in 0.5 mi Calm Calm - N/A Fog Light Freezing Fog
3:13 AM 20.3 °F 15.4 °F 18.9 °F 94% 29.81 in 0.2 mi West 3.5 mph - N/A Fog Light Freezing Fog
3:34 AM 18.1 °F 12.9 °F 16.0 °F 91% 29.81 in 3.0 mi West 3.5 mph - N/A   Scattered Clouds
3:54 AM 18.7 °F 13.5 °F 16.9 °F 93% 29.82 in 10.0 mi West 3.5 mph - N/A   Clear
4:13 AM 17.6 °F 12.3 °F 15.3 °F 91% 29.82 in 10.0 mi West 3.5 mph - N/A   Scattered Clouds
4:34 AM 19.8 °F 14.7 °F 18.1 °F 93% 29.83 in 2.5 mi NW 3.5 mph - N/A   Overcast
5:13 AM 19.0 °F 12.3 °F 17.2 °F 93% 29.84 in 0.5 mi NW 4.6 mph - N/A Fog Light Freezing Fog
5:34 AM 18.9 °F - 17.1 °F 93% 29.85 in 2.0 mi Calm Calm - N/A   Overcast
5:53 AM 17.6 °F 12.3 °F 15.6 °F 92% 29.86 in 0.8 mi NW 3.5 mph - N/A   Overcast
6:13 AM 17.6 °F 10.7 °F 15.6 °F 92% 29.86 in 1.2 mi NNW 4.6 mph - N/A   Overcast
6:34 AM 16.7 °F 9.6 °F 14.7 °F 92% 29.87 in 1.0 mi NNW 4.6 mph - N/A   Overcast
6:53 AM 15.4 °F 9.8 °F 13.1 °F 90% 29.88 in 10.0 mi NNW 3.5 mph - N/A   Mostly Cloudy
7:14 AM 14.0 °F 6.5 °F 11.3 °F 89% 29.88 in 10.0 mi West 4.6 mph - N/A   Mostly Cloudy
7:33 AM 14.0 °F 6.5 °F 11.7 °F 90% 29.90 in 10.0 mi West 4.6 mph - N/A   Mostly Cloudy
7:53 AM 13.8 °F 3.7 °F 11.7 °F 91% 29.90 in 10.0 mi West 6.9 mph - N/A   Mostly Cloudy
8:14 AM 14.7 °F 9.0 °F 12.6 °F 91% 29.90 in 10.0 mi WNW 3.5 mph - N/A   Mostly Cloudy
8:33 AM 13.8 °F 6.2 °F 11.3 °F 90% 29.91 in 10.0 mi WNW 4.6 mph - N/A   Mostly Cloudy
8:53 AM 15.3 °F 5.4 °F 13.1 °F 91% 29.92 in 10.0 mi West 6.9 mph - N/A   Overcast
9:14 AM 15.3 °F 5.4 °F 13.1 °F 91% 29.93 in 5.0 mi West 6.9 mph - N/A   Overcast
9:33 AM 17.6 °F 9.3 °F 15.8 °F 93% 29.93 in 10.0 mi West 5.8 mph - N/A   Overcast
9:53 AM 18.1 °F 10.0 °F 16.2 °F 92% 29.94 in 10.0 mi West 5.8 mph - N/A   Overcast
10:14 AM 20.1 °F 12.3 °F 18.3 °F 93% 29.94 in 10.0 mi West 5.8 mph - N/A   Overcast
10:33 AM 21.9 °F 12.5 °F 20.5 °F 94% 29.95 in 10.0 mi West 8.1 mph - N/A   Scattered Clouds
10:53 AM 24.8 °F 15.3 °F 23.2 °F 94% 29.95 in 10.0 mi West 9.2 mph - N/A   Clear
11:14 AM 22.1 °F 12.0 °F 20.5 °F 93% 29.96 in 10.0 mi WSW 9.2 mph - N/A   Scattered Clouds
11:33 AM 22.8 °F 14.5 °F 21.2 °F 93% 29.97 in 10.0 mi WSW 6.9 mph - N/A   Scattered Clouds
11:53 AM 24.6 °F 17.7 °F 23.2 °F 94% 29.97 in 10.0 mi West 5.8 mph - N/A   Mostly Cloudy
12:14 PM 27.0 °F 19.5 °F 25.7 °F 95% 29.97 in 10.0 mi West 6.9 mph - N/A   Scattered Clouds
12:33 PM 28.2 °F 21.0 °F 27.0 °F 95% 29.97 in 10.0 mi West 6.9 mph - N/A   Scattered Clouds
12:53 PM 30.2 °F 21.9 °F 29.1 °F 96% 29.97 in 10.0 mi West 9.2 mph - N/A   Mostly Cloudy
1:14 PM 31.1 °F 22.4 °F 29.7 °F 94% 29.97 in 10.0 mi West 10.4 mph - N/A   Mostly Cloudy
1:33 PM 32.0 °F 25.6 °F 28.6 °F 87% 29.97 in 10.0 mi WNW 6.9 mph - N/A   Mostly Cloudy
1:53 PM 33.4 °F 26.6 °F 27.3 °F 78% 29.98 in 10.0 mi WNW 8.1 mph - N/A   Scattered Clouds
2:14 PM 33.4 °F 28.1 °F 26.8 °F 77% 29.98 in 10.0 mi NW 5.8 mph - N/A   Mostly Cloudy
2:33 PM 33.8 °F 26.4 °F 25.5 °F 72% 29.98 in 10.0 mi WNW 9.2 mph - N/A   Mostly Cloudy
2:54 PM 33.4 °F 27.3 °F 25.0 °F 71% 29.98 in 10.0 mi NW 6.9 mph - N/A   Overcast
3:14 PM 32.9 °F 26.7 °F 25.0 °F 73% 29.98 in 10.0 mi NW 6.9 mph - N/A   Overcast
3:33 PM 32.7 °F 25.0 °F 24.8 °F 73% 30.00 in 10.0 mi West 9.2 mph - N/A   Overcast
3:54 PM 31.5 °F 23.5 °F 26.1 °F 80% 30.00 in 10.0 mi West 9.2 mph - N/A   Overcast
4:14 PM 31.5 °F 23.5 °F 26.2 °F 81% 30.01 in 10.0 mi West 9.2 mph - N/A   Overcast
4:33 PM 31.3 °F 23.9 °F 26.6 °F 83% 30.02 in 10.0 mi West 8.1 mph - N/A   Overcast
4:54 PM 31.3 °F 23.3 °F 26.2 °F 82% 30.02 in 10.0 mi West 9.2 mph - N/A   Overcast
5:13 PM 31.1 °F 23.1 °F 26.4 °F 83% 30.02 in 10.0 mi West 9.2 mph - N/A   Overcast
5:33 PM 30.9 °F 24.3 °F 26.4 °F 83% 30.03 in 10.0 mi West 6.9 mph - N/A   Overcast
5:54 PM 30.9 °F 24.3 °F 26.4 °F 83% 30.04 in 10.0 mi West 6.9 mph - N/A   Overcast
6:13 PM 30.7 °F 24.9 °F 26.1 °F 83% 30.05 in 10.0 mi West 5.8 mph - N/A   Overcast
6:54 PM 30.7 °F 24.1 °F 25.9 °F 82% 30.06 in 10.0 mi West 6.9 mph - N/A   Overcast
7:13 PM 30.9 °F 25.2 °F 25.7 °F 81% 30.07 in 10.0 mi WNW 5.8 mph - N/A   Overcast
7:33 PM 30.2 °F 25.4 °F 26.1 °F 85% 30.08 in 10.0 mi WNW 4.6 mph - N/A   Overcast
7:54 PM 30.2 °F 24.3 °F 25.7 °F 83% 30.08 in 10.0 mi NW 5.8 mph - N/A   Overcast
8:13 PM 30.0 °F 25.2 °F 25.7 °F 84% 30.08 in 10.0 mi NW 4.6 mph - N/A   Overcast
8:33 PM 30.0 °F 25.2 °F 25.7 °F 84% 30.08 in 10.0 mi NNW 4.6 mph - N/A   Overcast
8:54 PM 29.8 °F 23.9 °F 25.0 °F 82% 30.09 in 10.0 mi NNW 5.8 mph - N/A   Overcast
9:13 PM 29.7 °F 22.8 °F 24.4 °F 81% 30.09 in 10.0 mi North 6.9 mph - N/A   Overcast
9:33 PM 29.3 °F 24.3 °F 23.9 °F 80% 30.09 in 10.0 mi NNW 4.6 mph - N/A   Overcast
9:54 PM 29.3 °F - 23.9 °F 80% 30.09 in 10.0 mi Calm Calm - N/A   Overcast
10:13 PM 29.1 °F 24.1 °F 23.9 °F 81% 30.09 in 10.0 mi WNW 4.6 mph - N/A   Overcast
10:33 PM 28.8 °F 23.7 °F 23.5 °F 81% 30.09 in 10.0 mi WNW 4.6 mph - N/A   Overcast
10:54 PM 28.8 °F 22.6 °F 23.4 °F 80% 30.10 in 10.0 mi WNW 5.8 mph - N/A   Overcast
11:13 PM 28.4 °F 22.2 °F 23.0 °F 80% 30.10 in 10.0 mi WNW 5.8 mph - N/A   Overcast
11:34 PM 28.4 °F 23.3 °F 23.0 °F 80% 30.10 in 10.0 mi NW 4.6 mph - N/A   Overcast
11:53 PM 28.2 °F - 23.2 °F 81% 30.10 in 10.0 mi Calm Calm - N/A   Overcast